GW0103 Weather Reports


time (UTC)temp
C
wind
direction
speed
KPH
gust
KPH
rain 1hr
cm
rain 24hr
cm
rain mn
cm
humidity
%
barometer
mb
20260507051031 8 0.0 0.0 0.00 0.69 0.69 94 1003.5
20260507050046 8 25 0.0 4.8 0.00 0.69 0.69 94 1003.6
20260507045021 8 34 1.6 4.8 0.00 0.69 0.69 94 1003.7
20260507044058 8 0.0 0.0 0.00 0.69 0.69 94 1003.8
20260507043033 8 18 1.6 6.4 0.00 0.69 0.69 94 1003.5
20260507042049 8 16 1.6 6.4 0.00 0.69 0.69 94 1003.9
20260507041024 8 299 1.6 9.7 0.00 0.69 0.69 95 1003.8
20260507040021 8 17 1.6 4.8 0.00 0.69 0.69 96 1003.8
20260507035016 9 11 1.6 3.2 0.03 0.69 0.69 96 1003.7
20260507034032 9 8 1.6 4.8 0.05 0.69 0.69 97 1003.6
20260507033027 9 343 1.6 3.2 0.08 0.69 0.69 97 1003.5
20260507032022 10 27 1.6 9.7 0.08 0.69 0.69 97 1003.5
20260507031019 10 10 0.0 3.2 0.08 0.69 0.69 97 1003.6
20260507030034 10 37 1.6 3.2 0.08 0.69 0.69 96 1003.6
20260507025030 10 18 1.6 4.8 0.05 0.66 0.66 96 1003.5
20260507024026 10 16 1.6 4.8 0.03 0.61 0.61 95 1003.4
20260507023040 10 2 3.2 9.7 0.03 0.61 0.61 95 1003.5
20260507022016 11 333 4.8 14.5 0.05 0.61 0.61 96 1003.2
20260507021032 11 353 3.2 4.8 0.05 0.61 0.61 96 1003.1
20260507020027 11 14 3.2 12.9 0.05 0.61 0.61 96 1002.8
20260507015022 12 352 3.2 4.8 0.15 0.58 0.58 97 1002.5
20260507014019 12 16 1.6 3.2 0.20 0.58 0.58 97 1002.4
20260507013035 12 47 0.0 1.6 0.18 0.58 0.58 96 1002.2
20260507012031 12 347 1.6 6.4 0.18 0.56 0.56 96 1002.3
20260507011046 13 359 3.2 6.4 0.18 0.56 0.56 96 1002.0
20260507010021 13 320 3.2 9.7 0.15 0.56 0.56 95 1002.0
20260507005016 15 352 4.8 14.5 0.05 0.46 0.46 95 1001.9
20260507004032 15 214 0.0 1.6 0.00 0.38 0.38 94 1001.3
20260507003048 15 215 1.6 3.2 0.00 0.38 0.38 94 1001.0
20260507002022 15 120 0.0 1.6 0.00 0.38 0.38 93 1001.0
20260507001018 15 0.0 0.0 0.00 0.38 0.38 93 1001.1
20260507000034 15 0.0 0.0 0.00 0.41 0.38 93 1001.0
20260506235031 15 0.0 0.0 0.00 0.41 0.38 93 1000.7
20260506234026 15 0.0 0.0 0.00 0.41 0.38 92 1000.7
20260506233020 15 132 0.0 3.2 0.00 0.41 0.38 92 1000.8
20260506232016 15 149 0.0 3.2 0.00 0.41 0.38 92 1000.8
20260506231033 15 144 1.6 4.8 0.00 0.41 0.38 92 1001.0
20260506230028 15 169 1.6 4.8 0.00 0.41 0.38 91 1000.9
20260506225022 15 185 1.6 4.8 0.00 0.41 0.38 91 1000.9
20260506224018 16 159 3.2 9.7 0.00 0.41 0.38 91 1000.9
20260506223054 16 170 3.2 9.7 0.00 0.41 0.38 90 1000.9
20260506222030 16 143 1.6 4.8 0.00 0.41 0.38 91 1001.0
20260506221025 16 144 3.2 6.4 0.00 0.41 0.38 91 1000.8
20260506220020 16 133 4.8 14.5 0.00 0.41 0.38 92 1001.0
20260506215037 16 125 3.2 6.4 0.00 0.41 0.38 93 1000.9
20260506214032 16 149 3.2 4.8 0.00 0.41 0.38 93 1001.0
20260506213027 16 118 1.6 4.8 0.00 0.41 0.38 93 1000.9
20260506212023 16 138 1.6 4.8 0.00 0.41 0.38 94 1001.1
20260506211018 16 143 3.2 6.4 0.00 0.41 0.38 94 1001.1
20260506210053 16 141 3.2 6.4 0.03 0.41 0.38 95 1001.3
20260506205029 16 154 1.6 4.8 0.03 0.41 0.38 95 1001.3
20260506204024 16 147 1.6 6.4 0.08 0.41 0.38 96 1001.4
20260506203019 16 125 3.2 6.4 0.13 0.41 0.38 96 1001.4
20260506202035 16 129 3.2 9.7 0.15 0.41 0.38 97 1001.5
20260506201031 16 135 3.2 4.8 0.15 0.41 0.38 97 1001.4
20260506200027 16 113 3.2 6.4 0.15 0.38 0.38 97 1001.5
20260506195021 16 107 0.0 1.6 0.15 0.38 0.38 96 1001.8
20260506194057 16 110 1.6 3.2 0.10 0.33 0.33 96 1001.9
20260506193033 16 0.0 0.0 0.08 0.28 0.28 96 1002.1
20260506192029 16 75 0.0 1.6 0.10 0.28 0.25 96 1002.1
20260506191025 16 0.0 0.0 0.10 0.25 0.23 96 1002.0
20260506190020 16 0.0 0.0 0.10 0.25 0.23 95 1001.9
20260506185016 16 109 1.6 3.2 0.13 0.23 0.23 95 1002.4
20260506184052 16 100 0.0 1.6 0.15 0.23 0.23 94 1002.6
20260506183027 16 128 1.6 3.2 0.15 0.20 0.18 94 1002.9
20260506182022 16 125 1.6 3.2 0.13 0.18 0.15 93 1002.9
20260506181038 16 128 1.6 6.4 0.13 0.15 0.15 93 1003.1
20260506180033 16 124 1.6 4.8 0.13 0.15 0.13 92 1003.3
20260506175031 16 106 1.6 4.8 0.10 0.10 0.10 90 1003.4
20260506174046 16 129 1.6 3.2 0.08 0.10 0.08 89 1003.5
20260506173020 17 144 1.6 4.8 0.05 0.05 0.05 86 1003.5
20260506172016 17 170 3.2 6.4 0.03 0.05 0.03 82 1003.4
20260506171052 18 135 1.6 4.8 0.03 0.05 0.03 77 1003.4
20260506170027 18 139 3.2 12.9 0.00 0.03 0.00 73 1003.3
20260506165023 19 144 3.2 6.4 0.00 0.03 0.00 71 1003.2
20260506164038 19 159 3.2 6.4 0.00 0.03 0.00 70 1003.2
20260506163034 19 132 6.4 12.9 0.00 0.03 0.00 70 1003.3
20260506162030 20 144 4.8 12.9 0.00 0.03 0.00 69 1003.5
20260506161045 20 142 4.8 12.9 0.00 0.03 0.00 69 1003.6
20260506160020 20 129 4.8 14.5 0.00 0.03 0.00 70 1003.7
20260506155016 19 139 3.2 9.7 0.00 0.03 0.00 71 1004.0
20260506154032 19 129 3.2 9.7 0.00 0.03 0.00 72 1004.2
20260506153028 19 122 3.2 9.7 0.00 0.03 0.00 71 1004.3
20260506152043 19 134 1.6 4.8 0.00 0.03 0.00 72 1004.5
20260506151018 19 121 4.8 11.3 0.00 0.03 0.00 72 1004.4
20260506150054 19 140 3.2 9.7 0.00 0.03 0.00 72 1004.4
20260506145051 19 137 3.2 6.4 0.00 0.03 0.00 73 1004.4
20260506144026 19 144 1.6 3.2 0.00 0.03 0.00 73 1004.4
20260506143020 19 163 1.6 4.8 0.00 0.03 0.00 73 1004.5
20260506142016 18 160 3.2 9.7 0.00 0.03 0.00 73 1004.2
20260506141113 18 207 3.2 9.7 0.00 0.03 0.00 73 1004.3
20260506140028 18 160 1.6 9.7 0.00 0.03 0.00 75 1004.3
20260506135042 18 151 1.6 9.7 0.00 0.03 0.00 76 1004.1
20260506134017 17 152 1.6 4.8 0.00 0.03 0.00 77 1004.4
20260506133053 17 157 0.0 3.2 0.00 0.03 0.00 78 1004.7
20260506132029 17 200 0.0 1.6 0.00 0.03 0.00 78 1004.9
20260506131025 17 154 1.6 4.8 0.00 0.03 0.00 79 1004.9
20260506130021 17 85 1.6 3.2 0.00 0.03 0.00 79 1004.9
20260506125035 17 129 1.6 3.2 0.00 0.03 0.00 79 1004.9
20260506124031 17 151 0.0 1.6 0.00 0.03 0.00 79 1004.9
20260506123027 16 120 3.2 9.7 0.00 0.03 0.00 80 1004.8
20260506122022 16 105 1.6 4.8 0.00 0.03 0.00 82 1004.7
20260506121038 16 106 1.6 4.8 0.00 0.03 0.00 83 1004.9
20260506120034 15 87 1.6 4.8 0.00 0.03 0.00 86 1005.0
20260506115029 15 77 0.0 1.6 0.00 0.03 0.00 90 1005.1
20260506114026 13 0.0 0.0 0.00 0.03 0.00 92 1005.1
20260506113020 13 0.0 0.0 0.00 0.03 0.00 93 1005.2
20260506112016 13 0.0 0.0 0.00 0.03 0.00 94 1005.3
20260506111032 12 0.0 0.0 0.00 0.03 0.00 95 1005.3
20260506110028 12 0.0 0.0 0.00 0.03 0.03 96 1005.1
20260506105023 12 0.0 0.0 0.00 0.03 0.03 96 1005.1
20260506104018 11 0.0 0.0 0.00 0.03 0.03 96 1005.3
20260506103035 11 0.0 0.0 0.00 0.03 0.03 96 1005.2
20260506102030 11 0.0 0.0 0.00 0.03 0.03 95 1005.4
20260506101106 11 0.0 0.0 0.00 0.03 0.03 95 1005.1
20260506100020 11 0.0 0.0 0.00 0.03 0.03 95 1005.1
20260506095016 11 0.0 0.0 0.00 0.03 0.03 94 1005.0
20260506094032 11 0.0 0.0 0.00 0.03 0.03 93 1005.0
20260506093049 11 296 0.0 1.6 0.00 0.03 0.03 93 1005.1
20260506092044 12 0.0 0.0 0.00 0.03 0.03 92 1005.1
20260506091018 12 0.0 0.0 0.00 0.03 0.03 92 1005.2
20260506090034 12 0.0 0.0 0.00 0.03 0.03 92 1005.2
20260506085030 12 0.0 0.0 0.00 0.03 0.03 91 1005.1
20260506084026 12 0.0 0.0 0.00 0.03 0.03 89 1005.0
20260506083022 13 0.0 0.0 0.00 0.03 0.03 86 1005.0
20260506082017 13 0.0 0.0 0.00 0.03 0.03 85 1005.3
20260506081033 13 0.0 0.0 0.00 0.03 0.03 84 1005.3
20260506073035 15 132 1.6 3.2 0.00 0.03 0.03 81 1005.1
20260506072051 15 133 1.6 1.6 0.00 0.03 0.03 81 1005.1
20260506071027 15 133 1.6 3.2 0.00 0.03 0.03 80 1005.1
20260506062045 16 129 0.0 1.6 0.00 0.03 0.03 76 1004.9
20260506061040 16 130 0.0 1.6 0.00 0.03 0.03 76 1004.8